Hourly Data Report for October 07, 2014

All times are specified in Local Standard Time (LST). Add 1 hour to adjust for Daylight Saving Time where and when it is observed.

KUGAARUK CLIMATE
NUNAVUT

68°32'15.060" N
89°47'47.020" W
15.80 m
2303094
71407
NBB

Download Data

Hourly Data (October 2014)
Hourly Data Report for October 7, 2014
Temp Definition
°C
Dew Point Temp Definition
°C
Rel Hum Definition
%
Wind Dir Definition
10's deg

Wind Spd Definition
km/h
Visibility Definition
km
Stn Press Definition
kPa
Hmdx Definition


Wind Chill Definition


Weather Definition


TIME
00:00 -1.8 -3.2 90 7 27   101.97   -8 LegendNANA
01:00 -2.0 -3.5 90 7 30   101.99   -9 LegendNANA
02:00 -2.1 -3.6 90 8 29   101.99   -9 LegendNANA
03:00 -2.3 -3.8 90 8 27   102.03   -9 LegendNANA
04:00 -2.6 -4.0 90 7 26   102.10   -9 LegendNANA
05:00 -2.5 -4.0 89 8 24   102.13   -9 LegendNANA
06:00 -3.0 -4.5 90 8 30   102.18   -10 LegendNANA
07:00 -3.1 -4.5 90 7 22   102.20   -9 LegendNANA
08:00 -2.7 -4.2 89 8 27   102.18   -10 LegendNANA
09:00 -2.8 -4.3 89 7 21   102.23   -9 LegendNANA
10:00 -2.5 -4.2 88 8 25   102.24   -9 LegendNANA
11:00 -2.5 -4.3 88 8 18   102.26   -8 LegendNANA
12:00 -2.5 -4.3 88 7 25   102.26   -9 LegendNANA
13:00 -2.4 -4.2 87 8 38   102.21   -10 LegendNANA
14:00 -2.3 -4.2 87 8 38   102.24   -10 LegendNANA
15:00 -2.3 -3.9 89 8 20   102.35   -8 LegendNANA
16:00 -2.2 -3.8 89 7 25   102.36   -9 LegendNANA
17:00 -2.4 -4.0 88 8 25   102.39   -9 LegendNANA
18:00 -2.6 -4.2 89 8 22   102.40   -9 LegendNANA
19:00 -2.7 -4.5 88 10 21   102.39   -9 LegendNANA
20:00 -3.4 -5.0 89 8 17   102.41   -9 LegendNANA
21:00 -4.5 -5.8 90 11 6   102.46   -7 LegendNANA
22:00 -5.1 -6.5 90 8 18   102.45   -11 LegendNANA
23:00 -6.5 -7.8 91 6 16   102.47   -13 LegendNANA

Notes on Data Quality.

Legend

  • E = Estimated
  • M = Missing
  • NA = Not Available
  • ‡ = Partner data that is not subject to review by the National Climate Archives
Date modified: